Theta_e
306 294 292 291 293 295 296 297 297 295 294 294 296 294 292 292 293 294 295 298 298 296 296 297 299 299 300 302 304 306 306 305 305 304 305 307 307 308 308 308 310 310 311 315 316 316 316 315 315 316 317 317 317 318 320 322 325 327 328 328 328 329 329 329 329 329 329 328 328 328 327 327 328 328 329 329 330 330 331 331 331 331 331 332 331 330
304 293 292 296 298 297 297 299 298 295 294 292 292 293 292 293 290 294 294 297 298 295 295 297 297 297 299 301 303 304 304 302 303 303 304 305 306 307 308 308 309 310 313 314 313 312 313 313 315 315 315 314 314 315 316 318 321 325 327 327 328 328 328 328 328 329 329 330 329 328 328 329 329 328 327 327 329 330 331 331 331 331 331 331 331 330
293 290 294 298 300 298 299 299 299 296 293 293 291 292 291 292 295 294 295 296 297 295 293 296 294 295 297 299 301 301 302 304 304 305 305 305 305 306 307 307 308 309 309 310 311 311 311 312 314 314 314 315 315 315 317 318 319 322 325 326 327 328 328 328 328 329 328 330 331 330 330 330 330 332 331 330 330 331 330 331 331 331 330 330 330 331
288 293 297 300 299 297 296 297 297 297 295 292 291 290 288 292 289 287 292 294 295 295 293 295 293 294 297 299 299 301 301 302 304 305 305 306 305 305 305 307 308 308 308 308 309 309 310 310 311 313 314 314 315 315 316 317 318 319 322 324 326 327 328 328 328 327 330 330 331 332 331 332 331 330 331 330 331 331 330 329 331 331 330 330 330 330
291 296 300 299 298 296 294 296 295 294 291 294 293 291 289 289 290 290 289 292 294 295 295 294 292 291 294 294 295 299 301 301 301 303 303 304 305 306 307 308 308 307 307 307 308 308 309 309 310 312 314 315 315 316 316 317 317 318 321 324 326 327 328 328 328 327 329 329 329 329 330 329 329 328 328 328 328 328 329 329 329 329 331 330 330 330
294 298 300 297 296 295 294 293 294 294 290 292 295 294 293 292 290 290 292 289 289 288 293 291 283 284 291 294 294 296 297 298 299 300 300 301 302 303 303 304 306 307 308 307 307 307 309 309 309 312 314 314 315 315 317 319 319 319 320 323 325 326 327 328 328 328 328 327 327 326 325 323 324 323 324 324 325 326 326 327 329 330 330 330 330 331
295 299 297 296 295 295 294 293 296 296 291 289 290 297 296 293 291 291 290 289 284 281 288 291 283 281 291 290 292 294 294 294 297 297 298 300 300 301 302 302 303 304 305 307 308 308 308 308 309 310 313 313 314 315 317 317 317 318 320 323 325 326 327 328 328 328 327 327 327 326 326 326 325 324 326 328 329 329 329 330 329 330 330 330 330 330
297 297 295 296 295 294 293 290 295 295 291 288 297 297 297 294 292 291 290 289 286 293 293 290 291 284 284 290 293 295 293 294 296 297 297 299 300 301 302 302 303 304 305 306 307 308 308 308 308 309 311 313 313 315 316 316 316 317 319 321 323 325 325 328 328 327 327 326 326 326 326 326 327 327 327 329 329 330 330 329 329 329 329 330 330 330
296 294 295 293 293 292 291 293 296 297 292 292 296 297 295 295 293 293 291 289 289 288 284 289 292 284 283 290 294 294 291 292 293 295 298 299 300 301 302 303 303 304 305 305 306 307 307 308 308 309 311 314 314 315 315 315 315 316 316 318 320 322 324 326 327 326 326 326 327 327 327 326 327 328 329 330 329 328 329 328 328 328 329 329 330 330
294 297 296 296 293 290 294 296 298 297 292 295 297 298 297 297 295 294 291 289 289 286 281 286 290 282 282 290 289 293 292 291 293 296 297 299 300 301 302 302 303 304 305 305 305 305 306 308 309 311 312 313 313 314 314 314 314 313 314 313 314 316 320 324 326 326 326 326 326 326 327 326 327 327 328 329 327 327 328 327 327 328 328 328 328 329
299 299 301 297 294 295 296 298 299 298 297 298 297 295 294 293 292 293 292 290 288 281 283 288 289 285 279 287 289 289 290 293 295 296 297 300 302 302 303 303 304 303 303 304 305 305 306 308 308 310 309 310 312 313 312 312 312 312 313 313 313 314 317 321 324 325 326 326 326 326 327 327 327 327 327 326 326 326 326 325 326 326 327 327 327 328
295 297 296 298 300 299 300 296 299 300 299 297 294 292 291 289 292 289 288 290 281 278 285 290 288 288 278 284 289 293 296 296 295 294 296 298 299 301 303 303 302 302 303 303 304 305 306 306 306 307 307 309 310 311 312 314 314 313 314 314 314 316 318 321 323 325 325 326 326 326 327 327 327 327 326 325 325 325 325 325 325 326 326 326 327 327
289 290 295 297 300 298 296 294 294 297 297 294 293 290 283 281 283 278 283 278 278 278 286 289 289 285 283 287 290 293 294 296 297 296 296 298 299 301 303 303 303 303 303 304 305 306 307 307 307 306 307 309 309 311 313 314 314 314 315 315 315 316 318 320 323 324 325 325 325 326 326 327 327 327 326 326 326 327 326 326 326 326 325 326 326 325
287 293 293 293 296 299 297 289 288 288 292 292 289 287 282 278 277 274 278 281 281 284 288 287 290 283 288 290 294 294 295 296 297 298 300 300 299 301 302 302 302 305 304 305 306 306 307 308 308 308 308 309 311 311 312 313 313 314 315 316 317 318 319 321 323 324 324 325 325 326 326 326 326 326 326 326 326 326 326 327 326 326 325 325 326 326
279 280 288 292 288 298 296 294 293 291 291 291 294 290 285 283 279 274 277 275 277 281 285 288 285 280 283 285 295 296 299 299 298 300 300 300 300 300 300 301 302 303 304 306 305 306 306 307 308 308 308 309 310 310 310 311 312 312 313 314 314 314 316 320 322 323 324 324 324 325 325 326 326 325 325 325 326 326 325 325 325 325 325 324 324 324
283 284 292 295 296 298 294 298 298 295 292 293 294 294 287 284 290 280 283 281 281 279 280 283 283 289 287 295 295 297 298 297 297 298 298 299 300 301 300 301 302 303 304 305 306 307 307 307 307 306 307 308 309 309 309 309 310 312 312 312 313 313 314 316 319 321 322 322 323 323 323 324 324 324 324 324 323 324 324 324 323 323 322 322 322 321
285 282 294 294 297 296 296 298 297 297 283 290 291 285 288 296 291 285 284 282 283 282 278 288 286 288 294 295 296 298 297 297 297 297 298 298 300 301 301 302 302 303 303 305 306 307 308 307 306 307 307 307 307 308 309 309 309 310 309 310 309 309 310 312 313 313 314 315 315 316 318 319 320 321 322 321 320 319 320 320 320 319 319 318 318 316
282 283 293 293 289 296 300 299 298 298 297 293 286 289 295 294 293 286 279 282 279 276 279 286 282 284 286 282 295 294 295 296 297 298 298 298 299 299 300 302 302 303 303 304 306 306 305 306 306 306 307 307 307 307 306 306 307 308 308 308 308 308 308 308 309 309 310 310 310 309 310 310 312 313 313 313 313 313 312 312 312 312 311 310 310 310
289 280 285 291 293 295 299 297 291 298 300 294 291 299 288 280 281 286 283 275 275 275 277 282 285 285 286 286 289 290 293 294 296 298 298 297 299 299 300 302 302 302 303 303 303 304 304 304 305 305 306 306 306 305 305 305 305 305 306 306 307 306 306 306 306 306 307 307 307 307 306 307 307 307 308 308 308 309 309 308 308 308 308 307 308 307
289 280 283 291 292 290 293 292 283 287 294 292 295 294 297 290 285 282 283 284 284 276 277 277 283 280 290 289 292 292 294 295 296 296 297 298 300 301 301 302 302 302 302 303 303 303 304 304 304 305 305 304 304 303 303 304 304 304 304 303 304 304 304 304 305 305 305 305 305 304 304 304 305 305 306 306 306 306 305 305 306 305 305 306 305 306
285 287 277 286 290 292 284 286 286 289 286 288 287 288 288 288 292 290 289 284 281 279 279 278 278 282 290 294 294 294 295 295 296 297 298 299 300 302 302 302 302 301 302 303 303 302 302 302 303 303 304 304 303 302 302 302 303 302 302 302 303 303 303 303 304 304 303 303 303 303 303 303 303 303 303 303 304 304 303 303 303 304 304 304 304 304
285 285 279 283 283 282 286 292 291 293 293 291 288 287 288 286 283 280 278 289 286 282 278 278 276 285 291 295 295 295 296 296 297 298 299 301 301 302 303 302 300 301 302 303 303 302 302 301 301 302 301 301 301 300 300 301 300 300 301 302 302 302 302 302 302 302 302 302 302 302 301 301 301 301 302 301 302 302 301 302 302 302 302 302 302 303
290 287 284 280 282 284 289 293 294 293 289 291 292 289 292 291 289 284 277 281 285 285 286 284 280 282 294 294 296 296 297 297 298 299 298 300 302 302 303 302 302 302 303 304 303 302 302 302 301 300 300 299 300 300 300 299 300 300 300 300 300 301 301 302 301 301 301 301 300 300 300 300 300 300 300 300 300 300 300 299 299 300 301 301 301 301
290 284 281 282 285 288 290 290 286 288 290 285 285 288 291 288 289 287 285 287 283 284 282 282 279 283 294 294 296 297 297 298 298 298 298 299 300 300 300 301 302 302 302 302 302 302 302 301 300 299 298 298 298 298 299 299 299 299 299 299 299 300 299 299 299 299 299 299 299 298 298 298 298 298 299 299 298 298 298 298 298 299 299 299 300 299
283 284 283 278 278 280 283 286 286 285 286 285 286 289 289 291 291 289 287 286 283 284 284 281 276 283 291 296 295 294 294 294 295 295 297 298 300 300 300 301 302 301 301 301 301 300 300 299 298 298 299 298 298 298 298 298 298 298 298 298 298 299 299 298 298 298 298 298 297 297 297 297 297 297 297 297 297 296 296 297 297 297 298 298 298 298
283 285 281 275 273 271 271 272 275 279 282 286 287 288 289 288 286 285 281 283 279 283 285 281 281 288 293 292 292 292 294 294 295 296 296 298 300 300 301 301 301 301 301 301 300 299 299 299 299 299 299 299 298 298 298 298 297 297 297 297 298 298 297 297 297 297 297 296 296 296 295 295 296 296 296 296 295 295 296 296 296 296 297 297 297 297
282 283 285 282 279 277 279 282 286 288 286 282 284 285 286 288 289 287 286 282 279 283 282 284 286 287 289 290 290 291 293 293 294 295 294 295 296 298 299 300 300 300 301 301 300 300 299 299 299 299 299 299 298 297 297 296 296 296 296 296 296 297 296 296 295 295 295 295 295 295 295 295 295 295 295 295 295 295 295 295 295 295 295 295 295 296
281 279 282 283 283 285 286 284 286 288 284 285 285 285 287 288 288 286 282 280 287 283 279 286 288 286 287 291 292 292 293 294 295 296 296 296 298 299 299 298 296 298 299 300 300 299 299 300 300 299 299 298 297 296 296 295 295 295 295 294 294 294 294 295 294 293 294 294 294 294 294 294 294 294 294 294 294 294 294 294 294 294 294 294 294 294
282 279 282 282 281 284 285 286 286 286 286 286 286 286 286 287 287 284 284 287 287 282 280 286 288 287 289 291 293 294 294 295 295 296 297 297 297 297 297 296 297 297 298 299 300 300 300 300 300 300 299 298 296 295 295 294 294 293 293 293 293 293 293 293 292 292 292 293 293 292 292 292 292 293 293 293 293 293 293 293 293 293 293 293 293 294
284 281 282 283 281 282 283 284 285 284 284 285 285 286 287 287 287 287 286 288 288 285 287 288 289 289 291 293 294 296 297 297 297 298 297 295 296 297 298 298 298 298 298 299 300 300 300 300 301 301 300 297 295 295 294 294 293 293 292 292 292 292 292 292 292 292 291 292 292 292 292 292 292 292 292 292 292 292 292 292 292 293 292 292 292 292
283 279 284 283 280 280 283 284 284 284 282 281 284 285 286 286 287 288 288 288 288 287 287 287 286 286 291 295 296 297 298 297 297 296 296 297 298 298 298 298 298 298 298 299 300 301 301 301 301 300 299 297 295 295 294 294 293 293 292 292 292 292 292 292 291 292 292 292 292 291 291 291 291 291 291 291 291 291 292 291 292 292 291 291 291 291
284 281 284 281 277 277 281 282 282 282 282 280 280 282 284 283 281 283 284 287 287 284 286 285 284 284 291 295 296 296 296 296 294 295 296 297 298 298 298 299 299 299 298 298 299 301 301 301 300 299 298 297 296 295 294 294 293 293 292 292 291 292 291 291 291 291 291 291 290 290 291 291 290 291 290 290 290 290 290 290 290 291 291 291 291 291
282 280 279 279 276 275 280 282 281 281 279 276 277 281 283 283 284 286 287 288 288 289 285 283 284 291 293 295 293 294 295 295 295 295 296 297 299 299 298 298 299 299 299 299 299 299 301 301 301 300 299 298 296 295 295 295 293 293 293 292 292 292 290 290 290 290 290 289 289 289 289 289 289 289 289 289 289 289 290 289 290 290 290 290 290 290
282 281 279 281 274 276 279 279 280 276 270 272 284 288 286 283 284 283 283 285 288 289 287 290 290 293 293 293 293 293 294 295 296 298 299 298 297 298 298 299 299 300 300 300 300 300 301 302 302 301 300 298 297 296 296 295 294 294 294 293 292 291 291 290 290 290 290 289 289 289 289 289 289 289 289 288 288 289 289 289 289 289 289 289 289 290
279 280 279 280 275 274 278 278 274 269 271 283 291 290 289 288 287 286 287 288 289 290 290 290 290 291 293 294 295 295 296 297 298 298 299 299 299 299 299 298 298 299 299 300 300 300 300 301 301 301 299 298 297 296 295 294 294 293 293 292 291 291 290 290 289 289 289 289 289 289 289 289 289 289 289 289 289 289 289 289 289 289 289 289 289 289
280 279 279 278 278 278 275 274 266 269 280 283 286 288 291 289 289 288 286 288 290 290 290 289 290 292 293 294 295 296 296 297 298 298 299 300 300 299 299 299 299 299 298 300 300 301 300 300 300 300 300 299 297 295 295 294 294 293 292 292 290 290 289 289 288 288 289 289 289 288 289 289 289 289 289 288 288 288 288 288 288 288 288 288 288 288
283 282 280 276 280 272 274 274 273 280 279 281 282 285 287 284 285 284 279 284 289 290 290 289 290 291 292 293 294 295 296 296 295 295 299 299 299 299 299 300 301 301 301 301 301 302 303 302 301 302 300 299 297 295 294 294 293 292 291 290 290 289 289 289 289 289 289 289 289 289 289 289 289 289 288 288 288 288 288 287 287 287 287 288 288 288
285 280 281 276 275 278 273 272 273 273 269 275 284 288 292 291 291 290 285 282 290 292 292 290 289 291 292 293 294 294 295 292 289 291 296 298 299 300 300 301 301 302 302 302 302 302 302 302 302 301 301 299 296 295 295 294 292 291 290 290 290 289 289 289 289 289 289 289 289 289 289 290 290 289 288 288 288 288 287 287 287 287 287 287 287 287
285 285 282 278 276 276 274 271 271 269 272 281 283 287 290 292 292 292 284 279 287 290 292 292 291 292 292 292 293 294 291 287 287 292 296 298 298 299 299 300 300 301 302 302 302 301 301 301 301 301 300 299 296 296 294 292 291 291 290 290 289 289 289 289 289 289 289 289 289 289 289 289 289 289 288 288 288 288 287 287 287 286 286 287 287 287
280 280 280 276 274 275 274 272 270 275 274 281 285 287 289 291 291 287 273 275 287 290 291 291 291 291 292 293 294 292 290 286 288 293 297 299 300 299 299 299 299 299 300 301 301 302 302 301 300 299 298 297 297 295 292 291 291 290 290 290 289 289 289 289 289 290 290 289 289 288 288 288 288 288 288 287 286 286 286 286 286 286 286 286 287 287
277 278 278 274 275 275 276 274 276 277 283 286 286 288 289 292 288 276 271 280 289 291 292 292 291 292 293 292 293 290 292 294 295 297 299 299 297 297 298 299 300 300 300 300 300 297 300 300 300 298 297 297 297 294 292 291 291 290 290 290 289 288 289 290 290 289 289 289 288 287 287 287 287 286 286 286 286 285 285 285 285 285 285 285 285 285
276 277 277 278 274 273 275 273 273 277 284 287 288 289 290 286 275 274 285 291 290 290 292 292 291 292 293 293 293 293 294 297 296 297 297 297 296 297 297 297 298 298 299 299 299 297 299 298 298 298 297 297 296 293 291 291 290 290 290 289 288 289 290 289 289 289 288 287 287 286 286 286 285 285 284 284 284 284 284 284 284 284 284 285 285 284
277 275 274 274 277 277 276 273 272 269 282 289 288 286 289 281 281 288 290 291 291 291 291 292 292 292 293 293 294 295 295 295 296 296 296 296 296 296 296 296 295 296 296 297 296 296 296 297 297 296 297 296 293 292 291 290 289 290 289 288 289 290 289 288 288 288 287 287 286 285 284 283 282 282 283 282 283 284 284 283 283 283 283 283 284 283
283 275 276 277 280 273 273 271 272 280 285 289 287 281 286 287 290 291 291 289 292 292 291 291 291 293 294 294 294 294 295 295 295 295 295 295 296 296 296 295 296 296 296 296 297 296 294 296 296 296 295 293 291 290 290 290 289 289 288 288 289 288 288 287 287 287 286 285 284 283 282 282 281 281 282 282 282 283 283 282 282 282 283 283 283 284
283 279 281 277 282 278 276 279 284 286 287 290 290 289 290 292 292 292 292 291 291 291 292 291 292 292 293 294 294 294 293 294 294 295 295 295 296 296 295 294 295 295 295 295 295 295 293 294 295 295 293 291 289 290 290 290 290 288 287 288 287 287 287 286 286 285 284 284 283 282 281 281 282 281 281 281 282 282 282 281 281 283 283 282 283 283
286 286 286 283 281 286 286 286 288 288 288 288 290 291 291 291 293 292 292 290 291 293 293 292 292 292 292 293 293 293 293 294 294 295 295 295 295 295 295 294 294 294 294 294 294 293 292 292 292 291 289 288 289 289 289 290 289 287 288 286 286 287 286 285 284 283 283 282 281 280 279 279 279 279 279 280 281 281 282 281 281 281 282 282 282 282
284 285 283 280 283 280 276 285 285 286 288 289 289 291 291 292 292 292 292 292 292 293 293 293 292 292 292 292 292 293 294 294 294 295 295 295 295 294 293 293 293 293 293 292 293 291 290 289 288 288 286 286 287 288 288 288 289 289 286 285 286 286 284 283 283 281 280 280 279 278 279 281 281 280 279 279 281 281 281 281 281 281 280 281 281 280
280 286 282 282 282 280 279 284 287 288 289 290 290 290 290 290 291 292 292 293 293 293 293 293 292 290 292 291 292 292 293 294 294 294 294 294 294 295 293 292 292 292 292 292 292 289 288 288 287 286 285 285 285 286 287 286 286 285 284 285 284 284 283 281 281 280 280 279 279 280 280 280 276 278 280 279 280 280 280 280 280 280 280 280 280 280
284 284 278 282 280 283 285 286 287 287 287 288 290 291 291 292 292 291 292 292 291 290 291 292 292 292 292 292 292 292 291 292 293 294 293 293 293 293 292 292 292 292 291 289 288 287 288 287 286 285 285 284 284 284 284 283 283 284 283 283 283 283 282 280 278 278 277 278 279 278 279 279 279 279 279 279 278 279 279 279 279 279 279 280 280 280
284 279 283 282 278 278 279 282 285 281 281 286 288 289 290 291 291 291 291 290 290 290 290 290 291 291 292 292 292 292 291 292 293 293 292 292 293 293 292 291 290 289 288 288 287 287 287 286 285 284 284 282 282 281 280 280 281 281 281 281 282 282 280 278 278 278 278 278 279 278 277 277 277 278 278 278 278 278 278 276 277 278 278 279 280 279
282 283 283 280 279 279 284 287 288 287 287 288 289 291 291 291 291 290 290 290 291 291 291 291 290 291 290 290 291 291 291 292 293 293 292 292 292 292 291 290 288 287 286 285 285 285 285 285 284 283 281 280 280 279 279 278 279 279 280 281 282 281 279 278 278 277 277 277 276 276 277 277 277 277 277 277 277 277 276 277 277 277 277 277 278 279
Wind_Speed
8 9 10 14 14 15 16 17 13 3 3 1 4 6 6 8 5 1 2 2 1 3 11 13 14 14 16 17 16 11 8 7 9 11 13 14 13 12 12 13 13 13 14 11 8 8 10 11 9 9 8 8 9 9 10 10 11 11 11 10 12 10 11 10 10 10 10 11 10 12 13 13 12 12 12 12 12 12 12 12 12 12 11 12 11 11
11 12 18 18 11 10 12 11 7 5 1 4 7 9 9 7 8 3 3 3 2 4 4 3 8 13 16 18 19 12 9 11 11 13 15 16 16 13 14 14 15 15 11 9 9 12 10 9 10 7 6 8 10 11 10 11 12 11 10 11 11 8 10 12 12 10 10 11 11 11 11 10 10 11 11 12 11 12 11 12 12 12 12 12 11 10
12 17 19 15 8 6 6 10 11 12 9 5 7 7 8 9 3 1 3 1 2 2 10 7 11 13 14 16 19 17 13 10 13 15 16 15 15 13 13 14 15 14 14 14 14 13 11 11 10 8 7 8 11 11 10 11 10 9 9 10 9 9 10 11 11 10 11 11 11 10 7 8 7 8 8 8 8 10 11 11 12 12 11 12 12 12
14 16 18 10 9 8 8 12 11 10 9 9 9 8 10 2 6 7 4 3 5 6 4 1 9 11 13 16 19 21 17 13 14 16 16 13 14 16 17 15 11 12 14 17 16 12 11 11 10 8 8 9 8 8 9 9 10 8 8 9 9 9 10 9 11 12 11 9 9 9 6 6 6 5 7 8 8 9 11 11 10 11 11 12 12 12
16 2 4 12 12 12 12 12 13 10 12 12 12 10 8 5 4 3 2 2 1 7 6 9 11 14 14 15 14 17 18 15 15 13 14 14 14 16 14 11 14 18 17 15 16 13 10 9 10 10 9 6 7 8 9 9 9 6 9 9 9 8 9 9 10 12 9 8 8 7 5 3 4 3 5 7 8 9 10 9 11 12 12 12 12 12
20 13 4 11 12 14 13 12 14 11 9 9 13 13 8 3 4 2 1 2 3 4 6 5 8 12 10 18 18 13 8 10 8 11 13 15 14 11 15 18 18 16 14 16 17 14 10 9 10 9 7 8 8 8 9 8 8 8 8 8 8 7 8 9 11 11 10 9 10 9 8 9 8 8 9 10 11 9 10 11 9 10 11 11 11 11
13 9 10 10 12 12 14 13 13 12 10 9 7 14 7 5 3 2 2 2 4 7 2 3 9 12 4 7 9 8 8 8 4 7 10 12 12 13 15 15 15 15 15 14 14 13 13 12 11 12 10 10 9 10 6 6 8 10 9 8 8 8 7 8 9 11 10 10 9 12 11 10 10 9 9 9 8 8 8 7 9 8 9 11 11 11
7 14 12 13 12 12 11 14 13 16 10 10 5 11 12 11 11 10 8 8 6 2 2 4 6 10 14 11 7 7 5 6 7 7 10 10 10 11 12 13 13 13 14 11 10 10 10 12 13 14 13 10 10 9 6 7 6 8 8 7 8 7 7 7 8 10 11 10 10 11 11 10 10 11 9 9 8 7 6 7 8 7 7 9 10 10
15 14 18 16 14 12 16 12 11 15 10 3 7 10 12 12 12 10 8 7 4 3 10 10 9 7 12 5 9 9 13 16 15 12 10 11 12 11 12 13 13 14 13 10 9 9 9 10 12 12 11 9 9 8 8 7 6 5 6 6 7 8 8 8 10 10 12 11 11 11 10 10 9 9 7 5 6 6 6 7 6 7 7 7 9 9
2 15 19 19 16 16 14 12 15 16 13 3 6 5 4 5 5 8 7 6 3 5 11 12 13 10 17 7 7 7 10 14 10 10 13 14 12 13 12 12 14 12 7 7 11 11 10 9 9 10 8 7 7 6 6 5 4 4 5 6 8 9 8 8 10 11 12 13 11 10 11 12 10 8 6 6 6 6 6 7 7 6 6 6 7 8
4 5 6 13 16 16 14 12 15 17 6 10 8 9 6 5 4 4 5 6 3 10 16 13 15 11 14 8 10 10 9 7 6 8 9 10 10 9 9 12 9 8 7 7 8 9 10 8 8 6 8 9 7 5 5 6 6 6 6 8 9 10 8 8 10 11 12 12 12 11 12 13 12 9 8 6 6 6 6 7 7 6 6 6 6 6
13 4 8 4 8 5 8 6 4 10 12 13 6 7 7 4 5 4 3 6 8 11 12 11 14 14 13 6 3 7 7 11 11 11 12 12 12 11 9 8 8 7 6 6 7 8 8 7 7 6 8 9 8 5 6 6 6 6 7 8 9 8 8 7 8 10 10 10 11 11 11 11 10 8 7 8 7 7 7 7 6 6 6 6 6 6
14 12 4 1 2 12 11 10 7 9 10 12 9 10 11 7 5 7 6 10 13 12 2 10 11 10 18 21 8 2 7 8 7 8 11 11 10 9 9 7 3 4 5 6 6 6 5 6 6 7 8 7 6 7 6 6 5 5 6 8 8 7 7 7 8 10 10 10 10 10 9 9 7 7 7 7 7 7 7 6 6 6 6 5 5 5
7 10 11 9 5 12 15 14 9 9 13 15 15 14 13 11 11 11 10 6 6 10 8 4 3 11 8 18 17 22 16 10 12 12 9 10 9 5 2 1 2 2 3 4 4 4 4 4 5 5 5 4 3 3 3 3 4 4 4 6 8 6 6 6 8 9 10 10 9 8 8 7 6 7 7 6 6 6 5 5 5 5 5 5 5 5
11 9 13 14 9 15 20 17 15 9 16 17 13 14 14 11 8 10 8 11 11 4 5 10 3 6 8 8 6 6 3 7 12 8 7 7 7 7 5 5 7 7 5 3 4 4 5 5 4 4 4 3 3 3 2 2 2 3 4 5 6 6 5 6 8 7 8 7 8 7 7 6 5 5 5 5 5 4 5 3 4 5 5 5 5 5
18 14 6 21 8 17 17 16 14 13 12 15 14 12 15 17 7 13 5 7 5 2 3 8 9 4 12 8 4 4 1 1 1 5 5 10 10 6 6 7 8 7 6 4 5 5 5 4 4 4 3 4 4 4 3 3 3 4 4 4 5 6 6 5 6 6 7 8 8 8 9 9 7 6 6 6 5 5 5 6 6 5 5 5 4 4
5 15 13 15 8 11 19 17 15 18 12 10 11 15 13 1 14 7 2 2 2 2 10 5 7 14 10 18 12 8 5 5 3 4 5 11 12 9 9 11 11 7 5 4 5 5 5 3 4 3 4 3 2 3 3 4 4 5 6 5 6 5 5 6 5 6 5 6 6 6 6 6 7 7 8 6 6 6 5 5 5 5 4 4 3 3
7 7 10 13 16 12 13 15 16 24 10 10 13 13 3 2 2 8 12 4 5 12 7 12 17 14 10 12 9 19 13 11 7 7 8 7 6 8 11 11 10 6 6 7 5 3 3 4 4 4 4 4 4 4 3 3 2 3 4 6 7 7 7 6 6 6 6 7 6 6 5 5 5 5 5 5 6 5 5 4 3 4 4 3 2 2
6 14 3 8 13 14 11 8 7 12 11 9 10 14 12 6 8 11 7 16 8 13 9 15 16 18 14 14 4 8 14 14 15 14 7 7 8 10 10 12 7 4 3 5 6 5 5 6 7 7 8 6 5 4 3 3 4 3 4 4 5 6 6 6 5 5 5 5 4 4 5 5 5 4 5 4 5 5 5 4 4 3 3 3 3 3
1 11 7 10 12 2 4 10 12 11 14 5 7 11 4 3 9 14 14 4 10 17 8 15 14 16 13 14 13 8 9 7 7 10 12 14 13 10 9 7 6 5 6 6 6 6 6 6 7 7 8 9 9 7 5 5 4 5 5 5 5 5 5 6 6 6 6 5 5 5 5 4 4 4 4 4 5 4 4 4 3 3 3 2 2 2
12 3 15 4 3 11 8 5 13 13 15 10 3 8 7 5 4 6 10 14 10 10 14 10 13 10 10 8 13 13 13 10 11 9 10 12 14 12 8 7 4 5 6 6 6 6 6 6 6 5 4 3 4 4 4 4 5 4 4 5 5 6 6 6 5 5 5 5 5 6 6 5 4 5 4 4 4 5 4 3 3 2 2 2 2 1
6 10 12 6 6 10 5 11 14 16 15 14 11 11 12 13 10 12 12 9 9 12 11 12 17 7 3 4 8 12 13 14 16 14 9 10 12 12 9 5 5 6 7 7 6 6 6 6 6 5 3 3 4 5 6 4 3 4 4 4 4 4 4 5 5 5 5 4 5 6 6 5 5 4 4 5 4 4 4 3 3 2 2 3 2 2
11 3 12 16 10 9 12 6 1 7 4 9 12 13 17 13 12 12 16 12 7 13 7 11 10 14 3 5 6 8 10 11 12 10 12 9 10 10 6 4 6 8 7 5 5 6 6 6 7 6 6 7 7 6 6 5 4 4 4 4 4 4 5 4 5 5 5 5 6 6 5 5 5 5 5 5 4 4 4 3 3 2 3 3 3 2
7 6 7 12 9 10 5 3 2 5 5 8 9 6 9 16 17 15 15 12 13 10 12 12 15 15 4 3 5 8 4 4 1 5 9 8 5 5 6 7 9 7 5 3 4 4 5 5 4 4 6 7 7 7 7 6 5 5 5 5 5 5 6 5 5 5 5 5 6 6 6 5 5 5 5 5 4 5 4 3 3 2 3 3 2 3
7 4 10 13 9 8 9 5 6 2 1 5 6 11 12 10 14 8 4 2 12 13 16 12 19 10 4 10 3 4 4 6 7 6 8 9 8 7 8 8 5 4 4 5 6 6 6 6 8 8 8 7 7 6 6 6 5 5 5 5 5 5 5 5 4 5 5 6 7 6 5 6 5 5 5 5 4 5 4 4 3 3 3 3 3 2
6 5 11 13 14 15 12 13 13 14 13 7 8 7 7 13 14 8 10 5 11 10 17 16 13 13 5 4 5 5 6 6 7 8 7 8 7 7 7 6 5 4 5 6 7 7 9 10 8 8 9 8 8 6 6 6 6 5 5 6 5 6 6 5 4 5 5 5 6 6 6 5 5 5 5 5 5 5 4 4 3 3 2 2 3 3
3 4 11 12 15 17 14 9 2 9 3 10 5 9 14 13 15 13 6 10 10 3 12 14 16 16 20 10 7 7 8 11 11 8 8 9 10 8 4 4 4 4 4 6 7 6 5 7 11 12 10 7 5 5 5 6 6 6 6 6 5 4 5 5 5 5 5 5 6 6 6 5 5 5 5 4 4 4 4 4 3 3 3 2 2 2
2 6 8 14 17 16 17 13 7 9 12 13 16 18 16 16 15 15 14 11 5 12 19 10 17 18 21 20 12 10 10 9 6 8 9 7 6 5 5 4 4 4 5 5 6 9 12 13 12 11 10 9 8 6 5 5 6 7 7 7 6 5 5 5 6 6 6 6 5 5 6 5 5 5 4 4 4 4 4 4 3 3 3 2 2 3
5 8 10 9 14 14 16 15 14 10 11 11 12 17 18 19 17 19 19 20 18 16 13 14 20 21 21 19 17 11 11 9 10 10 8 4 1 2 4 6 7 8 7 8 10 11 11 12 12 12 11 9 8 8 8 7 7 6 4 4 6 6 7 6 6 6 6 6 6 6 6 6 5 4 5 5 5 4 4 4 3 3 3 3 3 2
4 10 12 9 12 12 12 11 13 15 14 15 15 15 18 18 20 21 17 21 23 19 15 18 15 16 14 18 15 14 9 10 7 5 2 2 6 8 8 8 9 8 9 12 12 13 13 14 13 12 10 8 10 10 9 9 9 8 8 8 7 7 6 7 6 7 6 7 6 6 6 6 6 5 5 5 5 5 4 4 4 4 3 3 3 3
7 10 12 8 10 15 14 12 10 11 10 12 13 17 19 18 17 16 16 18 16 18 17 19 20 19 15 17 17 12 8 4 10 8 8 8 8 9 10 10 9 9 10 12 12 13 13 13 11 7 8 10 11 12 11 10 9 7 8 7 7 7 6 6 7 6 7 7 6 7 7 7 6 6 6 5 5 5 4 4 3 3 3 3 3 3
7 6 5 2 8 11 9 10 13 13 13 15 15 12 12 13 13 11 15 16 18 19 18 22 23 17 13 17 18 21 18 12 11 10 10 10 12 12 12 10 9 9 11 12 14 13 12 12 11 11 13 14 14 13 11 10 10 9 10 9 9 8 7 7 6 7 6 6 6 6 7 6 6 6 6 5 5 4 4 3 3 3 3 3 3 2
3 3 6 5 11 13 14 9 12 11 11 14 14 14 15 16 15 16 14 14 17 18 19 19 17 14 18 16 18 21 21 18 11 13 14 15 13 10 12 12 10 11 13 13 13 13 14 15 15 16 15 11 10 11 13 12 10 11 11 11 10 8 8 8 7 6 6 6 5 6 5 5 5 5 5 4 4 4 3 4 3 3 2 2 2 1
4 6 7 4 7 9 12 6 5 7 12 8 7 17 16 16 17 18 15 17 21 17 15 16 18 16 16 17 19 19 22 20 18 15 15 13 15 15 13 13 13 13 13 13 14 14 15 12 10 10 11 12 12 13 9 10 11 9 8 8 9 10 9 8 7 7 7 6 5 5 5 5 5 6 5 5 5 4 4 4 3 3 2 2 1 1
7 6 8 4 4 9 8 1 6 13 9 1 3 7 13 16 13 16 17 18 18 19 20 19 19 20 21 17 18 20 21 20 19 16 13 15 17 15 12 10 10 12 13 12 12 11 10 10 10 9 10 11 13 12 9 10 10 8 8 9 10 9 9 7 7 6 6 7 6 6 6 6 6 6 6 6 6 5 5 4 4 3 2 2 1 1
11 10 8 8 6 7 10 9 11 4 1 6 4 5 3 3 9 10 13 16 17 18 17 18 20 21 22 22 22 19 21 21 19 15 12 11 10 10 10 11 13 14 15 13 13 12 12 13 14 15 15 15 11 9 11 13 11 11 11 9 9 10 8 8 8 7 7 8 7 8 7 7 7 6 6 6 6 5 5 4 3 4 3 2 1 1
17 12 9 11 9 11 8 12 13 6 11 6 2 4 8 9 8 11 11 13 16 15 13 13 17 20 21 23 23 22 21 18 16 17 11 10 8 11 16 19 18 16 15 15 13 12 13 13 13 15 17 12 10 12 14 11 10 9 9 10 8 9 9 10 10 10 9 8 9 8 8 7 7 7 7 6 6 6 5 5 4 3 2 2 2 2
16 18 11 13 10 12 13 11 10 9 11 7 14 13 14 13 13 15 12 12 7 10 13 13 17 20 23 22 21 21 18 15 17 16 13 14 17 17 17 17 18 18 18 18 17 17 19 15 12 13 12 12 13 14 9 9 10 11 11 11 11 11 10 10 11 10 10 9 9 8 7 7 6 7 7 6 6 5 4 4 3 3 2 1 1 1
18 17 15 15 12 11 12 12 10 11 9 10 13 15 15 13 13 2 5 10 11 11 13 17 18 20 21 19 19 16 12 12 14 15 15 15 18 18 18 16 16 14 17 18 19 18 17 15 15 15 13 12 13 12 11 13 15 13 12 12 12 12 11 12 11 11 11 9 8 7 6 6 5 6 6 5 5 4 4 4 3 2 2 1 1 1
17 15 15 15 16 14 11 13 13 7 9 13 15 12 13 13 10 5 11 7 13 16 17 18 20 21 20 20 18 14 11 11 14 15 17 14 11 13 13 13 13 15 17 17 18 18 18 17 13 8 10 13 14 11 14 15 14 17 13 12 11 13 13 13 12 10 8 8 8 7 6 5 6 5 6 6 5 4 4 3 3 3 3 2 2 2
10 12 15 16 14 20 22 14 11 9 5 7 13 16 8 9 9 11 11 8 15 17 18 18 20 20 19 17 12 12 13 16 16 15 16 2 7 10 10 12 14 14 15 17 17 17 15 12 10 15 18 15 14 12 13 13 14 14 13 12 13 15 14 11 10 10 9 8 7 7 7 6 6 7 5 5 6 5 3 3 3 4 3 3 2 3
10 9 10 14 16 18 16 18 14 10 9 11 13 11 11 11 10 12 13 17 19 19 17 14 16 16 16 17 13 13 14 14 16 18 19 9 6 7 9 10 11 11 12 14 15 14 12 11 10 11 12 8 10 11 11 14 15 15 13 13 15 14 10 11 10 10 9 9 9 8 7 7 6 5 5 4 5 5 4 3 3 3 3 2 3 4
9 7 9 11 7 9 12 13 12 13 7 17 19 15 12 13 9 12 14 17 19 19 16 9 12 16 14 13 15 14 15 12 11 14 15 16 10 8 10 10 11 11 11 13 12 11 10 10 13 12 13 10 12 12 12 17 16 16 11 14 14 10 11 11 11 11 11 10 9 7 6 6 6 5 4 5 4 5 5 5 4 4 3 3 2 2
10 8 9 11 11 11 13 11 10 11 13 18 20 13 14 19 16 18 15 14 14 15 17 12 11 13 13 13 13 9 11 12 14 13 14 12 9 9 10 12 12 10 10 10 12 13 13 12 13 10 10 10 8 10 11 15 18 16 13 13 8 10 10 12 11 11 10 7 8 7 6 6 5 5 4 5 4 4 4 4 3 3 3 2 2 1
17 13 8 6 7 9 11 13 14 12 11 12 13 12 9 14 14 14 13 14 14 13 14 9 12 15 15 9 9 10 10 11 13 12 11 12 10 9 11 12 13 13 11 11 13 13 11 13 14 11 9 7 10 9 14 16 18 16 18 10 10 11 12 11 11 11 8 7 7 6 6 5 5 5 4 4 4 4 4 4 3 2 2 2 1 0
8 16 10 4 11 13 14 17 13 13 14 15 15 13 16 16 16 15 12 9 9 11 10 9 14 14 11 7 7 8 10 14 13 11 10 11 9 7 7 7 9 11 11 10 9 10 12 12 10 8 10 7 10 10 12 13 13 17 14 11 12 12 12 15 14 13 12 9 7 7 8 7 5 4 4 3 3 3 2 2 2 0 1 0 0 0
11 6 7 10 12 6 15 23 22 19 18 20 20 16 14 14 14 14 15 13 13 14 15 10 8 6 6 7 10 12 13 14 12 14 13 9 8 7 8 11 9 9 11 12 12 8 7 5 7 9 9 9 9 10 9 11 9 10 8 10 11 13 14 14 14 13 12 8 7 6 7 7 5 5 4 3 2 2 2 1 1 0 1 1 1 1
9 11 9 15 13 14 23 16 11 16 16 15 11 11 13 15 17 16 15 13 11 10 8 6 5 6 7 9 12 13 15 15 15 16 14 11 8 7 8 9 9 9 9 8 5 6 6 8 9 10 11 11 10 9 9 9 8 11 14 13 14 13 12 13 13 11 8 9 7 6 5 5 6 5 3 2 1 1 1 1 1 1 2 2 1 2
5 12 11 6 9 18 22 25 15 6 9 13 16 14 12 10 10 14 15 14 9 12 13 10 8 13 11 13 13 12 14 15 15 15 14 13 10 7 8 8 8 9 7 7 6 7 11 8 8 9 9 8 8 8 8 9 11 13 14 13 12 14 14 12 13 13 12 8 6 6 5 5 4 2 2 2 2 1 1 1 1 2 3 3 2 2
6 11 4 3 10 14 17 7 13 7 14 15 17 19 18 18 18 17 14 11 11 13 14 16 14 11 10 11 12 11 14 16 17 13 13 12 13 10 7 7 7 7 6 6 5 4 6 7 9 9 9 8 8 8 10 10 8 8 9 11 12 13 14 14 11 9 7 6 6 6 6 5 4 3 2 2 1 1 1 2 4 3 3 4 3 5
14 14 8 13 13 18 17 11 9 12 16 19 13 12 14 16 13 13 13 13 14 15 16 15 16 14 10 12 13 12 14 15 19 15 13 13 13 9 6 8 8 7 6 7 7 6 7 6 9 10 11 8 8 8 9 8 8 8 6 7 10 11 14 15 10 7 6 6 5 5 5 5 4 3 2 2 2 1 2 2 1 4 7 9 10 10
Wind_Direction
167 200 203 210 216 206 203 207 216 32 345 282 187 218 229 224 227 96 268 145 178 260 236 233 238 250 258 263 261 246 216 217 237 243 248 250 245 240 241 248 255 255 253 252 250 242 243 244 243 242 238 237 240 240 237 234 228 223 219 212 217 212 204 203 199 199 197 200 206 218 220 221 219 219 220 222 222 225 226 225 224 224 223 224 222 220
200 218 227 222 223 212 201 204 228 251 2 214 208 219 227 211 243 149 185 132 184 247 257 208 256 247 253 264 267 256 203 226 227 235 240 248 248 248 246 246 250 256 259 234 238 244 241 241 241 232 231 233 238 237 228 227 228 224 218 215 221 209 204 205 205 199 200 202 201 200 208 210 212 212 214 219 220 222 224 225 224 224 226 225 224 217
207 220 230 223 210 163 161 196 217 223 219 220 230 220 234 229 221 347 230 187 180 228 262 262 263 260 252 257 267 265 247 234 237 236 241 246 254 253 250 244 244 247 255 259 248 236 233 235 239 234 233 232 231 243 230 226 228 222 211 218 219 210 204 206 206 203 204 203 203 202 202 201 205 211 212 214 214 217 222 223 222 223 224 224 225 224
224 233 234 222 196 157 183 202 206 215 229 222 220 214 222 187 163 232 173 196 231 226 284 41 280 269 261 256 261 267 262 248 234 239 245 245 254 258 257 254 251 244 246 250 251 240 224 223 238 233 231 231 226 230 234 226 223 222 218 219 209 209 207 204 204 207 209 204 201 203 207 196 204 208 204 220 215 223 225 221 220 220 220 220 223 222
221 17 227 186 185 189 205 196 198 203 220 222 227 228 227 149 198 307 85 213 294 240 282 285 276 265 238 241 244 250 249 242 237 237 241 244 243 253 268 279 260 256 252 253 256 247 225 210 220 225 231 225 222 226 227 219 215 210 219 215 207 206 206 207 205 204 202 193 188 192 189 179 205 217 215 217 222 217 219 223 224 221 217 218 219 219
235 215 142 180 186 194 204 207 204 201 226 226 223 227 235 144 182 109 40 347 263 260 180 220 296 268 229 213 228 237 230 224 232 225 233 242 242 243 255 258 261 256 247 247 255 255 247 229 233 226 216 223 228 231 227 219 217 220 225 218 206 208 209 210 207 199 195 199 196 192 195 201 208 216 206 212 212 202 205 213 214 213 211 212 217 220
232 188 149 182 192 204 205 211 199 196 225 223 229 201 204 178 156 112 77 109 248 258 80 230 233 277 144 220 197 223 240 250 200 210 232 238 240 234 237 245 253 260 264 254 244 244 239 240 234 234 220 217 223 231 220 208 222 221 224 216 205 206 211 209 203 190 190 199 200 199 200 202 201 207 214 213 207 203 202 198 200 202 203 207 213 221
189 195 178 180 194 205 214 225 205 192 210 234 122 167 185 187 199 211 207 209 242 354 248 212 253 273 277 248 184 152 209 231 216 205 220 228 233 236 235 240 245 248 250 258 260 250 240 237 236 238 230 217 220 226 215 225 222 219 220 214 211 212 212 200 190 190 195 199 201 202 205 206 208 209 215 199 199 199 195 195 195 194 199 201 209 215
198 192 201 190 197 213 224 223 190 193 205 250 129 161 181 184 204 205 203 220 254 334 268 225 187 269 258 254 172 205 237 238 234 226 218 216 225 236 236 237 241 245 248 252 264 263 250 236 233 236 233 220 216 219 214 217 221 221 224 220 216 218 212 206 194 194 196 202 201 202 204 210 218 220 219 196 189 189 191 198 196 202 202 201 206 213
5 203 196 193 194 215 218 215 167 179 209 109 108 58 120 167 185 190 196 205 202 211 248 233 173 237 271 204 170 182 229 236 224 219 237 246 234 221 232 241 246 248 252 249 259 263 260 249 242 240 240 224 218 211 212 216 215 221 220 220 220 222 216 207 197 197 199 200 201 203 206 210 215 214 209 200 190 195 193 201 199 198 205 205 204 208
243 352 201 189 208 215 210 197 170 186 172 126 135 113 108 109 152 175 205 199 186 238 242 234 174 211 273 242 202 171 208 197 210 225 231 233 240 243 233 236 245 249 247 249 247 251 254 251 245 230 224 226 214 197 202 207 209 211 211 215 214 219 213 204 202 200 201 200 203 207 207 209 212 206 199 194 199 199 194 202 198 200 205 205 206 204
254 186 181 230 209 202 190 141 166 178 141 149 158 139 136 117 144 169 184 199 221 247 245 204 178 203 240 252 163 201 142 190 204 223 226 226 236 241 237 236 242 245 253 253 250 249 241 240 232 224 233 227 219 205 205 202 197 202 206 201 207 208 206 203 202 200 200 198 204 211 211 211 209 201 197 204 204 198 200 201 201 200 206 206 208 209
240 223 165 235 278 167 178 177 174 171 175 190 182 174 205 208 183 227 174 213 217 232 125 162 185 227 232 256 259 272 192 206 221 230 229 231 230 230 243 245 261 251 239 236 236 238 230 224 227 219 232 224 213 215 205 193 189 193 195 195 196 199 194 199 195 197 199 199 204 206 209 211 209 210 208 208 209 200 206 204 207 203 209 208 212 207
239 212 182 198 196 201 187 195 163 186 192 199 202 201 203 211 211 231 207 228 252 240 235 158 211 253 290 277 247 243 230 204 213 220 225 231 234 226 229 273 260 238 244 258 258 252 237 222 217 217 224 226 237 233 215 192 184 178 181 182 190 180 180 189 188 191 192 198 201 203 207 206 203 207 204 208 208 207 211 208 202 205 214 214 217 221
246 208 196 171 220 173 202 204 176 176 177 200 206 206 215 216 210 223 203 214 217 244 180 169 175 215 187 231 42 227 330 258 230 213 233 266 268 260 265 270 267 258 249 224 246 235 231 223 215 211 211 208 216 215 208 195 171 159 164 171 168 156 171 177 180 182 184 187 197 202 203 201 196 194 194 200 210 200 202 203 212 218 220 226 227 232
235 255 161 186 175 181 205 210 190 155 186 197 200 205 217 217 209 234 226 223 235 204 195 195 215 224 218 94 123 88 252 249 250 228 221 249 253 235 246 252 249 244 234 216 225 232 231 227 210 203 204 212 203 196 186 175 162 161 156 153 153 151 149 151 152 157 168 176 183 190 196 202 202 202 205 201 204 210 211 209 209 204 205 203 198 193
209 243 151 190 210 202 195 191 190 150 210 179 199 211 208 303 220 237 318 107 29 275 246 158 243 247 280 279 250 226 209 234 179 214 208 236 249 258 258 254 244 227 208 202 224 228 230 220 230 214 194 196 206 202 192 173 167 160 147 143 137 133 129 125 124 125 127 129 134 143 153 166 176 181 187 187 180 176 176 183 183 184 181 175 191 171
241 257 174 166 196 216 212 208 192 186 187 142 210 204 116 7 337 217 238 200 198 241 243 180 224 244 224 271 199 220 209 214 214 211 201 231 248 251 245 247 245 220 210 210 225 239 235 224 208 194 180 179 186 185 168 154 146 143 140 141 142 144 133 123 124 122 123 124 120 121 121 116 123 127 127 136 142 147 148 148 148 152 154 142 123 138
231 261 185 208 199 199 199 185 300 264 226 216 210 169 182 162 190 214 222 230 207 226 239 234 233 243 228 231 94 179 209 214 215 225 211 229 232 237 243 249 249 164 201 213 221 217 208 206 203 191 182 170 165 169 169 155 154 148 135 128 139 131 123 124 117 116 107 111 108 108 110 114 112 113 119 122 129 137 139 137 133 126 121 133 152 160
187 239 249 175 199 141 131 190 210 197 249 276 315 193 165 169 208 194 208 252 226 239 238 248 220 245 216 234 236 218 159 191 210 215 224 233 238 236 238 243 245 207 216 218 215 215 207 202 202 194 183 173 170 171 172 167 163 154 142 137 120 111 115 121 123 125 122 116 120 118 114 108 112 118 122 128 134 126 116 112 112 122 138 127 141 118
233 188 249 181 189 151 222 193 206 188 200 211 252 201 175 230 3 258 218 210 219 234 234 253 249 234 237 208 219 221 231 198 207 197 206 220 228 232 240 237 219 222 220 216 211 208 202 198 193 190 184 175 149 148 157 171 168 148 143 138 139 138 137 130 127 126 123 125 123 127 124 123 117 112 108 107 106 112 115 117 128 131 122 134 115 114
235 207 233 215 211 218 211 184 208 210 198 195 184 203 184 185 203 209 229 216 223 227 231 241 249 253 248 164 199 215 219 214 216 220 208 217 225 232 228 217 214 231 231 220 211 201 193 191 184 176 167 166 179 171 173 167 155 155 154 145 137 135 139 138 140 139 133 126 127 129 127 124 123 123 124 124 118 119 119 123 121 117 129 116 92 86
217 232 229 235 222 218 222 233 258 273 315 241 201 205 191 200 198 213 225 210 214 227 251 250 281 258 189 143 197 198 210 210 211 202 221 217 223 232 228 201 225 231 240 225 205 199 192 186 181 178 180 189 196 178 167 166 175 165 153 149 160 156 153 150 145 141 141 134 134 128 124 126 123 124 125 122 119 115 111 107 99 101 111 101 101 80
81 217 231 251 260 240 228 230 298 354 290 271 276 300 219 206 199 217 226 223 225 205 223 239 247 257 233 123 179 202 197 206 189 206 218 235 245 256 256 240 233 230 224 200 190 182 177 168 163 173 191 198 199 185 177 174 168 161 164 169 167 166 154 152 149 146 136 127 120 121 121 118 118 121 123 117 109 110 97 95 88 80 82 83 78 88
211 181 217 233 244 234 231 238 264 208 196 252 236 220 239 246 222 226 12 313 242 205 209 209 239 251 209 176 102 112 179 195 206 203 214 225 236 236 234 235 224 207 183 186 184 180 167 173 188 199 199 201 201 189 174 172 172 172 176 173 175 162 165 154 150 142 135 132 127 127 123 121 123 120 115 111 109 104 98 93 93 79 82 93 93 92
292 192 193 216 222 228 223 214 213 220 217 210 235 253 221 228 235 235 234 213 240 217 218 229 244 248 230 172 131 154 202 209 209 206 210 222 230 227 230 244 248 208 205 183 181 176 186 192 199 202 203 204 203 188 174 172 174 176 173 183 178 171 164 158 147 145 137 134 131 129 128 127 127 125 121 119 115 110 103 103 98 101 88 85 108 96
264 283 235 212 222 234 240 246 211 197 161 211 183 209 230 227 229 233 253 236 231 122 236 232 242 256 247 203 180 167 198 212 208 210 211 225 236 241 252 259 254 244 214 196 189 189 180 201 210 210 205 205 192 185 178 172 175 178 180 182 185 177 164 156 150 145 141 140 136 136 138 138 133 128 127 120 115 112 111 105 103 106 101 76 80 89
223 254 266 278 255 244 249 253 249 206 218 214 211 216 215 220 218 224 226 235 215 244 240 222 235 242 251 249 236 165 200 215 219 211 214 223 227 229 227 248 259 232 223 195 197 196 200 207 210 209 205 196 196 189 186 185 189 189 185 179 179 174 166 160 155 152 148 146 141 139 139 132 129 127 125 120 119 117 114 112 111 105 104 104 97 89
232 257 253 231 262 274 276 284 283 264 258 251 225 219 214 212 210 221 229 235 234 237 249 237 234 239 249 255 251 228 186 202 213 228 233 220 268 249 242 234 229 221 205 208 211 213 214 212 211 207 199 193 184 189 193 193 195 195 190 182 174 175 177 165 155 152 150 149 146 147 141 137 132 128 127 129 124 122 121 118 118 121 120 118 110 103
221 244 258 240 258 257 258 253 263 268 256 251 258 253 243 227 218 221 222 226 231 241 243 249 257 259 261 262 264 263 232 204 211 223 133 171 218 221 221 222 220 215 208 210 213 213 217 219 216 209 193 180 192 198 197 196 195 191 188 185 184 183 172 163 161 154 155 158 153 146 147 143 143 143 142 139 135 131 133 137 139 139 132 118 110 102
205 250 232 241 254 252 241 240 245 246 258 270 262 259 256 255 247 233 239 239 241 245 246 258 261 262 260 274 280 284 274 193 226 208 221 219 216 222 223 221 217 214 213 219 219 218 220 221 218 197 183 198 202 205 201 199 190 183 191 188 181 180 168 170 160 163 163 159 151 152 149 149 150 149 145 139 136 138 139 137 137 127 112 98 86 82
199 260 259 258 251 257 238 230 237 236 232 237 245 243 256 260 263 257 245 238 235 236 232 233 241 244 243 243 257 260 258 235 200 206 214 232 227 223 224 222 221 220 221 222 224 221 221 224 216 206 207 206 204 202 198 193 189 185 195 182 181 177 166 169 166 164 163 149 152 156 157 150 147 142 137 140 135 130 123 112 100 87 78 72 69 65
170 279 271 249 254 257 261 235 246 245 245 240 228 234 225 226 228 242 243 255 256 257 248 238 239 237 243 240 243 252 255 255 214 200 213 219 228 229 226 224 218 219 223 221 221 219 218 218 213 209 210 202 198 198 207 193 179 195 190 179 180 159 166 171 167 158 153 155 158 160 155 149 145 136 135 132 125 122 118 111 102 104 101 90 74 61
182 205 250 273 257 262 274 268 241 247 240 227 210 215 210 219 225 230 236 233 238 233 248 253 258 254 249 248 249 253 254 249 244 226 209 221 230 232 229 224 215 218 222 222 218 214 216 215 213 209 206 203 203 206 202 191 195 189 170 162 156 164 170 163 163 161 155 157 164 162 158 155 146 142 140 138 136 137 138 137 129 119 110 107 108 89
220 209 243 200 267 282 294 354 242 229 235 276 285 187 198 215 220 227 234 238 241 241 244 251 256 256 255 256 256 256 256 260 258 252 229 218 228 233 229 222 229 233 235 237 234 229 224 217 215 209 207 207 209 203 187 200 206 176 164 171 170 171 160 160 152 160 158 158 163 164 165 161 156 147 147 148 147 146 144 141 133 134 135 130 128 121
227 223 233 239 234 258 267 253 253 231 73 10 354 337 312 226 229 239 252 252 246 244 242 245 248 251 254 257 258 259 260 263 264 258 245 240 229 233 238 233 227 224 230 231 231 223 210 208 209 207 205 210 199 190 191 201 186 174 178 169 168 164 162 154 158 162 164 167 170 174 175 169 161 153 149 148 147 145 144 144 145 139 131 130 125 103
234 238 227 253 218 233 234 244 238 280 285 228 211 209 187 195 188 192 232 236 226 226 223 232 245 249 251 250 251 252 255 258 262 264 234 182 183 207 219 226 223 220 219 222 216 219 217 212 208 209 215 199 181 191 199 187 162 166 155 168 174 165 163 164 167 171 173 173 174 177 176 173 161 154 150 150 150 149 147 145 145 136 142 146 153 168
218 228 222 231 228 214 234 247 253 232 235 231 220 217 201 206 194 200 214 253 222 204 212 219 231 239 244 247 248 251 253 260 264 265 245 180 196 213 216 223 226 227 230 235 234 231 233 228 219 216 207 193 193 200 179 143 158 167 171 177 172 168 170 174 177 172 171 176 177 173 171 171 163 152 150 150 148 141 132 126 122 125 148 143 162 178
216 219 229 227 239 237 224 235 238 235 227 227 237 221 211 210 220 140 239 250 251 233 219 219 228 237 241 243 246 241 240 246 253 256 256 211 197 213 218 218 222 226 233 235 236 235 232 229 219 214 199 188 200 194 159 161 169 174 183 176 173 174 172 183 175 170 174 173 166 162 163 162 153 143 142 137 132 129 132 138 129 125 139 169 222 255
212 217 222 231 230 234 238 233 235 212 227 205 223 226 223 213 195 165 234 232 245 238 232 228 228 237 239 236 236 236 230 240 244 252 248 238 200 216 218 227 226 230 234 236 239 239 237 233 221 192 188 198 206 165 161 164 170 181 181 180 171 176 184 184 175 160 153 148 153 155 154 151 142 136 137 136 130 133 134 131 138 156 169 183 208 218
211 219 217 225 224 235 237 243 249 256 225 217 228 226 191 134 145 198 218 230 241 235 226 220 223 227 235 240 231 239 225 226 237 245 256 106 174 200 218 220 230 225 228 233 236 237 240 234 201 197 196 200 184 154 165 163 169 182 185 175 179 189 188 165 139 142 144 143 146 150 152 149 149 142 135 135 139 139 138 156 157 161 180 191 199 210
205 204 222 222 228 229 233 239 238 250 225 224 240 232 143 150 197 206 213 219 232 243 234 219 226 232 234 238 233 230 240 229 232 250 261 238 178 192 209 216 233 237 236 239 239 236 235 232 209 219 222 203 149 157 161 167 178 186 178 177 194 192 150 131 138 139 140 146 151 152 149 144 135 135 138 141 142 146 153 156 161 177 186 197 199 206
187 180 209 215 211 222 226 238 241 246 145 210 230 233 180 210 199 211 221 223 228 241 251 211 211 229 227 237 234 230 240 245 238 247 251 255 237 194 206 220 225 227 226 229 233 217 217 216 215 218 213 165 162 164 167 175 183 189 174 190 191 147 131 137 138 140 145 146 148 145 141 138 139 143 143 148 156 151 150 157 168 183 190 196 210 219
155 193 215 220 192 206 212 213 222 203 212 206 213 212 180 210 206 210 208 225 224 234 245 235 223 231 228 225 235 229 236 246 250 247 256 258 245 214 204 220 231 236 237 234 232 223 205 217 223 221 201 166 166 162 163 175 187 189 186 193 139 130 132 135 140 139 140 139 141 138 136 134 135 133 140 146 151 151 147 155 166 177 178 190 215 238
181 206 185 217 183 205 217 226 229 224 223 229 235 255 249 227 233 233 221 220 226 229 235 234 234 237 236 232 236 241 246 241 239 241 245 250 243 219 210 211 217 226 223 227 228 228 208 215 222 215 177 167 162 162 173 184 186 183 188 168 131 141 144 137 138 139 137 140 139 133 133 131 134 134 132 148 158 155 150 152 178 173 174 190 207 244
196 205 219 266 233 218 244 244 244 233 226 227 230 228 233 230 233 242 248 254 248 252 238 218 230 239 236 209 227 238 241 251 253 248 235 248 245 225 228 230 229 231 236 236 241 223 218 222 227 208 170 161 166 169 179 186 185 181 179 139 151 149 141 143 142 146 143 134 133 132 136 123 118 116 125 146 146 138 136 140 157 178 161 195 279 291
240 209 197 227 239 234 250 229 225 232 227 228 236 234 238 243 240 234 234 232 241 242 246 244 253 252 202 195 214 232 241 247 255 260 253 247 247 219 210 226 231 220 221 223 225 217 201 193 191 189 167 163 173 169 176 182 185 175 130 143 142 142 144 145 144 140 135 132 126 129 134 133 135 134 134 141 140 136 134 123 119 174 274 247 254 251
239 183 222 233 229 216 248 256 221 224 234 242 244 246 239 239 243 245 243 241 244 261 277 250 181 209 183 196 212 227 239 244 248 255 259 254 246 218 214 225 232 237 231 232 218 192 197 194 195 181 167 166 167 169 161 168 156 140 145 143 146 148 143 140 144 137 137 134 131 130 130 117 117 124 129 127 124 131 120 125 160 226 239 239 246 262
172 139 222 198 230 245 257 257 248 311 290 255 248 247 251 248 241 240 244 247 243 250 249 237 193 231 197 213 217 222 239 247 244 251 260 266 264 216 216 218 225 231 224 203 196 184 190 186 181 163 147 155 152 148 134 137 130 141 144 143 148 151 144 138 130 126 124 130 121 119 119 117 124 127 129 141 141 138 147 179 208 244 261 237 232 251
154 212 155 136 232 244 239 258 103 221 250 245 232 235 238 240 244 249 248 237 232 234 240 245 241 219 228 232 230 225 235 250 252 245 251 253 258 241 198 201 215 215 212 198 161 178 180 179 165 157 144 136 135 128 124 125 132 135 137 140 151 147 138 135 124 119 123 122 120 118 125 124 127 138 142 142 132 125 161 188 224 263 279 290 264 242
212 212 171 220 219 245 244 237 193 222 247 250 242 232 228 234 235 238 240 233 236 235 238 239 246 245 216 224 228 227 235 244 253 248 248 253 243 230 206 189 191 196 183 162 151 165 155 148 146 124 120 128 126 122 120 119 122 126 134 137 131 138 136 137 122 116 119 127 126 128 123 126 134 143 137 111 92 56 349 325 239 235 265 274 282 287